OBJECT D

基本信息
目录编号:
62300
目录名称:
OBJECT D
国际标识:
2021-035D
轨道中心:
EARTH
物体状态:
已陨落(2025-04-10)
发射日期:
2021-04-29 UTC
国别:
中国 (CN)
轨道信息
数据来源: 国际轨道数据
星历时间: 2025-04-07T17:11:06+0800
半长轴: 6560.764km
偏心率: 0.0003712
轨道倾角: 41.445°
近地点辐角: 227.454°
升交点赤经: 74.449°
平近点角: 132.601°
近地点: 180.193km
远地点: 185.065km
周期: 88.144分钟
每日圈数: 16.336959
详细信息
发射场:
WSC
轨道高度:
LEO
数据来源:
AOE Integration Group
参考系:
TEME
时间系统:
UTC
历元类型:
SGP4
2D轨道图
3D轨道图
轨道高度分析图
轨道倾角分析图
轨道综合分析图
查看轨道综合分析图